�������l�o���
Date,Time,MP-1(��Sv/h),MP-2(��Sv/h),MP-3(��Sv/h),MP-4(��Sv/h),MP-5(��Sv/h),MP-6(��Sv/h),MP-7(��Sv/h),MP-8(��Sv/h),����,����(m/s),���J
2020/01/19,00:00,0.694,0.988,0.652,1.238,0.869,0.399,0.702,0.666,�k��,6.9,��
2020/01/19,00:10,0.694,0.986,0.652,1.239,0.870,0.398,0.699,0.667,�k�k��,6.9,��
2020/01/19,00:20,0.693,0.990,0.653,1.237,0.869,0.399,0.701,0.666,�k��,6.9,��
2020/01/19,00:30,0.693,0.987,0.652,1.238,0.868,0.400,0.702,0.667,�k��,6.3,��
2020/01/19,00:40,0.694,0.986,0.652,1.239,0.869,0.400,0.701,0.666,�k��,6.6,��
2020/01/19,00:50,0.695,0.989,0.652,1.239,0.869,0.398,0.700,0.667,�k��,7.1,��
2020/01/19,01:00,0.693,0.988,0.653,1.239,0.870,0.398,0.701,0.666,�k�k��,6.6,��
2020/01/19,01:10,0.693,0.988,0.652,1.239,0.869,0.398,0.701,0.667,�k�k��,6.4,��
2020/01/19,01:20,0.695,0.987,0.651,1.238,0.868,0.398,0.701,0.667,�k�k��,6.9,��
2020/01/19,01:30,0.693,0.990,0.652,1.238,0.867,0.397,0.701,0.666,�k�k��,6.1,��
2020/01/19,01:40,0.694,0.988,0.654,1.239,0.871,0.399,0.701,0.666,�k�k��,6.1,��
2020/01/19,01:50,0.693,0.988,0.653,1.239,0.870,0.398,0.700,0.666,�k�k��,7.1,��
2020/01/19,02:00,0.696,0.986,0.653,1.239,0.871,0.400,0.700,0.668,�k�k��,7.1,��
2020/01/19,02:10,0.694,0.988,0.651,1.237,0.872,0.397,0.700,0.667,�k�k��,7.2,��
2020/01/19,02:20,0.693,0.986,0.651,1.238,0.872,0.399,0.701,0.665,�k�k��,7.4,��
2020/01/19,02:30,0.694,0.989,0.650,1.240,0.872,0.398,0.700,0.668,�k�k��,7.4,��
2020/01/19,02:40,0.694,0.989,0.653,1.240,0.871,0.397,0.700,0.668,�k�k��,7.4,��
2020/01/19,02:50,0.694,0.987,0.653,1.239,0.869,0.398,0.699,0.667,�k�k��,8.6,��
2020/01/19,03:00,0.694,0.988,0.653,1.238,0.870,0.398,0.702,0.666,�k�k��,7.7,��
2020/01/19,03:10,0.693,0.988,0.652,1.241,0.870,0.399,0.701,0.666,�k�k��,6.7,��
2020/01/19,03:20,0.694,0.985,0.653,1.241,0.870,0.398,0.700,0.667,�k�k��,6.3,��
2020/01/19,03:30,0.693,0.988,0.653,1.240,0.872,0.397,0.701,0.666,�k�k��,6.9,��
2020/01/19,03:40,0.694,0.986,0.654,1.240,0.871,0.398,0.701,0.666,�k�k��,6.6,��
2020/01/19,03:50,0.692,0.988,0.652,1.239,0.870,0.397,0.700,0.667,�k�k��,6.9,��
2020/01/19,04:00,0.692,0.990,0.651,1.240,0.870,0.399,0.700,0.667,�k�k��,7.5,��
2020/01/19,04:10,0.694,0.988,0.653,1.241,0.869,0.396,0.701,0.666,�k�k��,8.2,��
2020/01/19,04:20,0.694,0.985,0.651,1.239,0.869,0.397,0.701,0.665,�k��,7.2,��
2020/01/19,04:30,0.692,0.988,0.651,1.240,0.869,0.397,0.701,0.666,�k��,6.9,��
2020/01/19,04:40,0.693,0.986,0.654,1.239,0.867,0.399,0.702,0.666,�k��,6.0,��
2020/01/19,04:50,0.694,0.987,0.652,1.241,0.872,0.398,0.701,0.667,�k��,6.3,��
2020/01/19,05:00,0.692,0.986,0.652,1.241,0.870,0.399,0.700,0.666,�k��,6.7,��
2020/01/19,05:10,0.694,0.988,0.651,1.240,0.871,0.399,0.702,0.666,�k��,6.6,��
2020/01/19,05:20,0.693,0.986,0.654,1.241,0.868,0.397,0.700,0.666,�k��,6.9,��
2020/01/19,05:30,0.694,0.986,0.653,1.240,0.870,0.398,0.701,0.667,���k��,6.9,��
2020/01/19,05:40,0.693,0.988,0.653,1.241,0.870,0.398,0.703,0.668,�k��,6.9,��
2020/01/19,05:50,0.693,0.986,0.654,1.239,0.869,0.397,0.702,0.666,���k��,7.7,��
2020/01/19,06:00,0.693,0.987,0.652,1.240,0.868,0.399,0.699,0.667,�k��,7.5,��
2020/01/19,06:10,0.694,0.986,0.652,1.240,0.869,0.399,0.701,0.667,���k��,8.0,��
2020/01/19,06:20,0.695,0.988,0.652,1.241,0.869,0.399,0.701,0.665,���k��,8.9,��
2020/01/19,06:30,0.693,0.988,0.652,1.241,0.869,0.398,0.699,0.668,���k��,8.0,��
2020/01/19,06:40,0.694,0.985,0.651,1.241,0.868,0.398,0.701,0.667,�k��,8.8,��
2020/01/19,06:50,0.693,0.986,0.652,1.242,0.868,0.398,0.702,0.667,�k��,7.7,��
2020/01/19,07:00,0.690,0.986,0.652,1.240,0.867,0.398,0.701,0.667,�k��,6.3,��
2020/01/19,07:10,0.692,0.988,0.653,1.241,0.868,0.400,0.702,0.667,�k��,6.6,��
2020/01/19,07:20,0.692,0.988,0.652,1.238,0.867,0.397,0.702,0.666,�k��,6.7,��
2020/01/19,07:30,0.693,0.986,0.653,1.239,0.868,0.397,0.702,0.667,�k��,5.5,��
2020/01/19,07:40,0.694,0.985,0.654,1.241,0.869,0.398,0.701,0.667,�k��,6.9,��
2020/01/19,07:50,0.693,0.985,0.652,1.241,0.867,0.399,0.702,0.667,�k��,6.6,��
2020/01/19,08:00,0.693,0.985,0.654,1.242,0.867,0.399,0.702,0.668,�k��,6.0,��
2020/01/19,08:10,0.695,0.986,0.653,1.239,0.869,0.398,0.701,0.668,�k��,6.0,��
2020/01/19,08:20,0.694,0.988,0.654,1.240,0.869,0.398,0.702,0.668,�k��,5.5,��
2020/01/19,08:30,0.696,0.986,0.654,1.242,0.869,0.397,0.704,0.667,�k��,5.3,��
2020/01/19,08:40,0.695,0.987,0.655,1.239,0.866,0.399,0.701,0.667,�k��,5.3,��
2020/01/19,08:50,0.696,0.986,0.653,1.241,0.869,0.399,0.702,0.667,�k��,4.3,��
2020/01/19,09:00,0.695,0.987,0.654,1.243,0.868,0.399,0.702,0.668,�k��,5.8,��
2020/01/19,09:10,0.695,0.986,0.654,1.241,0.869,0.398,0.703,0.668,�k��,5.5,��
2020/01/19,09:20,0.694,0.991,0.654,1.240,0.868,0.400,0.701,0.667,�k��,6.0,��
2020/01/19,09:30,0.695,0.989,0.652,1.240,0.870,0.398,0.704,0.667,�k,4.3,��
2020/01/19,09:40,0.698,0.989,0.654,1.241,0.871,0.398,0.703,0.667,�k�k��,5.2,��
2020/01/19,09:50,0.696,0.991,0.655,1.242,0.869,0.399,0.702,0.669,�k�k��,6.4,��
2020/01/19,10:00,0.698,0.990,0.655,1.240,0.871,0.400,0.701,0.667,�k�k��,5.5,��
2020/01/19,10:10,0.696,0.989,0.654,1.240,0.873,0.399,0.701,0.667,�k�k��,5.2,��
2020/01/19,10:20,0.699,0.989,0.656,1.242,0.870,0.399,0.703,0.668,�k�k��,4.9,��
2020/01/19,10:30,0.696,0.989,0.655,1.243,0.871,0.400,0.702,0.668,�k�k��,5.3,��
2020/01/19,10:40,0.697,0.989,0.654,1.241,0.871,0.398,0.701,0.669,�k�k��,6.3,��
2020/01/19,10:50,0.698,0.992,0.655,1.240,0.872,0.401,0.701,0.668,�k,5.0,��
2020/01/19,11:00,0.698,0.991,0.657,1.241,0.872,0.400,0.701,0.669,�k,3.8,��
2020/01/19,11:10,0.697,0.988,0.657,1.244,0.872,0.399,0.702,0.669,�k,4.1,��
2020/01/19,11:20,0.699,0.991,0.655,1.241,0.871,0.401,0.701,0.667,�k�k��,6.9,��
2020/01/19,11:30,0.698,0.989,0.655,1.244,0.872,0.400,0.700,0.667,�k�k��,6.9,��
2020/01/19,11:40,0.700,0.991,0.656,1.242,0.874,0.399,0.699,0.668,�k,6.7,��
2020/01/19,11:50,0.699,0.990,0.656,1.243,0.874,0.400,0.702,0.669,�k�k��,6.9,��
2020/01/19,12:00,0.699,0.988,0.656,1.241,0.873,0.400,0.701,0.668,�k�k��,6.1,��
2020/01/19,12:10,0.698,0.993,0.656,1.243,0.874,0.399,0.700,0.668,�k�k��,5.8,��
2020/01/19,12:20,0.700,0.992,0.656,1.243,0.874,0.402,0.701,0.668,�k�k��,5.6,��
2020/01/19,12:30,0.700,0.992,0.657,1.242,0.876,0.400,0.700,0.668,�k�k��,6.0,��
2020/01/19,12:40,0.699,0.992,0.656,1.244,0.877,0.401,0.701,0.668,�k�k��,5.5,��
2020/01/19,12:50,0.701,0.994,0.657,1.244,0.875,0.399,0.703,0.668,�k�k��,4.5,��
2020/01/19,13:00,0.703,0.992,0.656,1.244,0.876,0.402,0.702,0.668,�k�k��,4.4,��
2020/01/19,13:10,0.702,0.991,0.656,1.247,0.875,0.400,0.702,0.669,�k��,4.1,��
2020/01/19,13:20,0.700,0.994,0.657,1.244,0.874,0.403,0.702,0.669,�k��,4.0,��
2020/01/19,13:30,0.699,0.995,0.658,1.243,0.876,0.401,0.702,0.668,�k��,3.8,��
2020/01/19,13:40,0.703,0.997,0.658,1.245,0.878,0.402,0.703,0.669,�k��,3.3,��
2020/01/19,13:50,0.700,0.996,0.658,1.243,0.877,0.401,0.700,0.670,���k��,3.8,��
2020/01/19,14:00,0.701,0.999,0.658,1.243,0.879,0.400,0.703,0.669,�k��,3.3,��
2020/01/19,14:10,0.700,0.996,0.659,1.245,0.879,0.402,0.703,0.670,�k��,2.7,��
2020/01/19,14:20,0.701,0.996,0.659,1.245,0.875,0.402,0.702,0.670,�k�k��,2.7,��
2020/01/19,14:30,0.703,0.997,0.658,1.244,0.878,0.401,0.704,0.670,�k��,2.3,��
2020/01/19,14:40,0.701,0.993,0.660,1.245,0.876,0.401,0.702,0.668,���k��,2.5,��
2020/01/19,14:50,0.702,0.999,0.658,1.243,0.878,0.400,0.704,0.669,���k��,2.1,��
2020/01/19,15:00,0.700,0.998,0.659,1.243,0.876,0.402,0.703,0.670,���k��,1.6,��
2020/01/19,15:10,0.701,0.995,0.658,1.245,0.877,0.402,0.702,0.669,���k��,0.9,��
2020/01/19,15:20,0.702,0.995,0.658,1.244,0.878,0.401,0.703,0.670,�k��,1.2,��
2020/01/19,15:30,0.700,0.996,0.659,1.245,0.877,0.402,0.704,0.667,���k��,0.9,��
2020/01/19,15:40,0.701,0.994,0.658,1.244,0.880,0.402,0.704,0.668,���k��,1.1,��
2020/01/19,15:50,0.699,0.995,0.659,1.244,0.877,0.403,0.703,0.670,���k��,0.8,��
2020/01/19,16:00,0.702,0.997,0.657,1.244,0.877,0.401,0.703,0.669,-,CALM,��
2020/01/19,16:10,0.702,0.995,0.658,1.247,0.876,0.402,0.703,0.667,��,0.5,��
2020/01/19,16:20,0.702,0.997,0.659,1.246,0.878,0.401,0.705,0.667,���쓌,0.5,��
2020/01/19,16:30,0.702,0.996,0.658,1.241,0.878,0.402,0.702,0.669,���k��,0.9,��
2020/01/19,16:40,0.701,0.993,0.656,1.245,0.876,0.401,0.703,0.668,��쐼,1.0,��
2020/01/19,16:50,0.700,0.998,0.657,1.245,0.876,0.401,0.702,0.668,��,0.9,��
2020/01/19,17:00,0.700,0.994,0.659,1.245,0.876,0.402,0.703,0.668,�쐼,0.6,��
2020/01/19,17:10,0.701,0.997,0.657,1.244,0.876,0.400,0.704,0.667,-,CALM,��
2020/01/19,17:20,0.701,0.995,0.657,1.243,0.877,0.401,0.703,0.668,��,0.5,��
2020/01/19,17:30,0.701,0.995,0.658,1.246,0.877,0.400,0.703,0.668,�쐼,0.8,��
2020/01/19,17:40,0.701,0.997,0.658,1.243,0.878,0.402,0.704,0.668,��쐼,1.0,��
2020/01/19,17:50,0.700,0.995,0.659,1.243,0.877,0.401,0.703,0.668,��쐼,0.9,��
2020/01/19,18:00,0.701,0.996,0.657,1.246,0.876,0.401,0.703,0.669,-,CALM,��
2020/01/19,18:10,0.702,0.998,0.657,1.243,0.877,0.402,0.701,0.668,��,0.6,��
2020/01/19,18:20,0.700,0.995,0.658,1.243,0.876,0.402,0.704,0.668,��,0.6,��
2020/01/19,18:30,0.700,0.994,0.658,1.244,0.877,0.402,0.704,0.669,��,1.3,��
2020/01/19,18:40,0.699,0.996,0.657,1.242,0.875,0.402,0.702,0.669,��,2.9,��
2020/01/19,18:50,0.701,0.995,0.659,1.246,0.877,0.402,0.703,0.669,��,2.7,��
2020/01/19,19:00,0.700,0.996,0.657,1.240,0.878,0.402,0.703,0.669,��,3.5,��
2020/01/19,19:10,0.698,0.996,0.658,1.245,0.877,0.401,0.704,0.668,��,2.6,��
2020/01/19,19:20,0.701,0.994,0.658,1.244,0.879,0.402,0.703,0.669,��쐼,3.1,��
2020/01/19,19:30,0.701,0.995,0.659,1.246,0.878,0.402,0.704,0.668,��,3.3,��
2020/01/19,19:40,0.700,0.997,0.658,1.246,0.876,0.401,0.705,0.668,��,3.4,��
2020/01/19,19:50,0.701,0.996,0.657,1.245,0.879,0.402,0.705,0.671,��,3.8,��
2020/01/19,20:00,0.702,0.995,0.657,1.244,0.879,0.401,0.704,0.669,��,4.4,��
2020/01/19,20:10,0.699,0.993,0.657,1.245,0.877,0.401,0.702,0.668,��,2.8,��
2020/01/19,20:20,0.701,0.993,0.658,1.244,0.876,0.402,0.704,0.667,��쐼,1.6,��
2020/01/19,20:30,0.700,0.997,0.658,1.244,0.878,0.400,0.702,0.668,��쐼,2.7,��
2020/01/19,20:40,0.699,0.994,0.658,1.247,0.874,0.402,0.703,0.669,��,4.0,��
2020/01/19,20:50,0.701,0.995,0.660,1.243,0.878,0.402,0.704,0.667,��,3.9,��
2020/01/19,21:00,0.702,0.995,0.659,1.245,0.875,0.402,0.704,0.667,��,3.8,��
2020/01/19,21:10,0.701,0.995,0.659,1.248,0.880,0.402,0.704,0.668,��,4.9,��
2020/01/19,21:20,0.700,0.994,0.657,1.245,0.880,0.401,0.703,0.667,��,4.6,��
2020/01/19,21:30,0.701,0.995,0.660,1.244,0.878,0.402,0.704,0.668,��쐼,5.3,��
2020/01/19,21:40,0.702,0.994,0.659,1.245,0.876,0.401,0.702,0.670,��쐼,6.0,��
2020/01/19,21:50,0.701,0.995,0.658,1.246,0.876,0.401,0.702,0.668,��쐼,6.1,��
2020/01/19,22:00,0.698,0.997,0.657,1.246,0.876,0.401,0.704,0.669,��쐼,7.4,��
2020/01/19,22:10,0.701,0.994,0.656,1.242,0.876,0.401,0.702,0.668,��쐼,7.2,��
2020/01/19,22:20,0.700,0.996,0.657,1.244,0.878,0.402,0.702,0.668,�쐼,6.4,��
2020/01/19,22:30,0.699,0.995,0.658,1.243,0.877,0.402,0.704,0.668,��쐼,7.5,��
2020/01/19,22:40,0.697,0.996,0.657,1.244,0.879,0.402,0.704,0.668,��쐼,8.5,��
2020/01/19,22:50,0.700,0.996,0.657,1.244,0.875,0.401,0.704,0.667,��쐼,8.0,��
2020/01/19,23:00,0.700,0.995,0.656,1.244,0.877,0.402,0.704,0.668,��쐼,9.4,��
2020/01/19,23:10,0.701,0.995,0.659,1.246,0.876,0.402,0.703,0.669,��쐼,9.1,��
2020/01/19,23:20,0.701,0.997,0.658,1.244,0.878,0.399,0.705,0.668,��쐼,9.1,��
2020/01/19,23:30,0.702,0.995,0.660,1.248,0.877,0.403,0.705,0.668,��쐼,9.1,��
2020/01/19,23:40,0.701,0.997,0.658,1.246,0.878,0.401,0.705,0.668,��쐼,9.4,��
2020/01/19,23:50,0.701,0.995,0.657,1.242,0.879,0.403,0.704,0.669,��쐼,7.7,��
